#timestamp,LO_Frequency,Hit,StdDev 
1686027615.1,286046997.3,N
1686027635.9,286046997.8,N
1686027655.7,286046996.5,Y
1686027675.5,286047001.2,P
1686027695.4,286046998.2,N
1686027715.2,286046998.4,N
1686027735.1,286046998.4,N
1686027736.0,286046998.4,N
1686027755.8,286046999.4,N
1686027775.6,286046999.0,N
1686027795.5,286046998.5,N
1686027815.3,286046996.5,Y
1686027835.2,286046998.9,P
1686027855.9,286046998.9,P
1686027875.7,286046999.5,P
1686027895.6,286046998.7,Y
1686027915.4,286047001.1,P
1686027935.3,286046998.8,N
1686027955.1,286046999.3,N
1686027956.0,286046999.3,N
1686027975.8,286046998.7,N
1686027995.7,286046999.1,N
1686028015.5,286046998.9,N
1686028035.3,286046998.3,N
1686028055.2,286046998.8,N
1686028075.0,286046998.8,N
1686028075.9,286046998.8,N
1686028095.8,286046998.8,N
1686028115.6,286046999.3,N
1686028135.4,286046999.0,N
1686028155.3,286046998.8,N
1686028175.1,286046998.3,N
1686028195.8,286046998.5,N
1686028215.7,286046998.6,N
1686028235.5,286046998.4,N
1686028255.4,286046998.6,N
1686028275.2,286046998.5,N
1686028295.0,286046998.4,N
1686028295.9,286046998.4,N
1686028315.8,286046998.8,N
1686028335.6,286046998.1,Y
1686028355.4,286047002.7,P
1686028375.3,286047002.8,N
1686028395.1,286047000.2,N
1686028415.9,286047000.4,N
1686028435.7,286047001.0,N
1686028455.5,286047000.3,N
1686028475.4,286047000.8,N
1686028495.2,286047000.8,N
1686028515.0,286047001.1,N
1686028515.9,286047001.1,N
1686028535.8,286046998.8,N
1686028555.6,286046998.5,N
1686028575.5,286046998.3,N
1686028595.3,286046998.3,N
1686028615.1,286046998.6,N
1686028635.9,286047001.1,N
1686028655.7,286047001.2,N
1686028675.6,286047001.0,N
1686028695.4,286046999.6,N
1686028715.2,286046998.9,N
1686028735.1,286046998.7,N
1686028736.0,286046998.7,N
1686028755.8,286046998.1,N
1686028775.6,286047000.3,N
1686028795.5,286047000.8,N
1686028815.3,286047002.8,N
1686028835.2,286047000.1,N
1686028855.9,286046999.9,N
1686028875.7,286047000.6,N
1686028895.6,286047001.1,N
1686028915.4,286046999.4,N
1686028935.2,286046996.7,N
1686028955.1,286046999.3,N
1686028956.0,286046999.3,N
1686028975.8,286046999.3,N
1686028995.7,286046998.9,N
1686029015.5,286046999.5,N
1686029035.3,286046998.7,N
1686029055.2,286046999.5,N
1686029075.0,286046998.4,N
1686029075.9,286046998.4,N
1686029095.7,286046998.4,N
1686029115.6,286046999.0,N
1686029135.4,286046996.6,N
1686029155.3,286046999.0,N
1686029175.1,286046996.5,N
1686029176.0,286046996.5,N
1686029195.8,286046996.5,N
1686029215.7,286046999.5,N
1686029235.5,286046999.4,N
1686029255.4,286046999.2,N
1686029275.2,286046996.7,N
1686029295.0,286046996.5,N
1686029295.9,286046996.5,N
1686029315.8,286046997.0,N
1686029335.6,286046996.5,N
1686029355.4,286046996.5,N
1686029375.3,286046997.4,N
1686029395.1,286046995.4,Y
1686029415.9,286046996.6,P
1686029435.7,286046997.2,P
1686029455.5,286046997.8,P
1686029475.4,286046997.1,Y
1686029495.2,286047000.5,P
1686029545.1,286047001.2,E
1686029555.9,286046999.0,N
1686029575.7,286046999.6,P
1686029595.6,286046996.8,P
1686029615.4,286046999.2,N
1686029635.3,286046999.2,N
1686029655.1,286046998.5,N
1686029656.0,286046998.5,N
1686029675.8,286047000.7,N
1686029695.7,286047000.4,N
1686029715.5,286047000.0,N
1686029735.3,286047002.3,N
1686029755.2,286047002.5,N
1686029775.0,286047001.6,N
1686029775.9,286047001.6,N
1686029795.8,286047002.2,N
1686029815.6,286047000.1,N
1686029835.4,286046999.8,N
1686029855.3,286047002.7,N
1686029875.1,286047002.2,N
1686029895.8,286047001.6,N
1686029915.7,286047001.9,N
1686029935.5,286047004.0,N
1686029955.4,286047003.3,N
1686029975.2,286047001.4,N
1686029995.0,286047004.4,N
1686029995.9,286047004.4,N
1686030015.8,286047003.8,N
1686030035.6,286047003.6,N
1686030055.4,286047003.7,N
1686030075.3,286047003.7,N
1686030095.1,286047004.1,N
1686030115.9,286047003.0,N
1686030135.7,286047002.9,N
1686030155.6,286047003.3,N
1686030175.4,286047003.8,N
1686030195.2,286047005.7,Y
1686030215.1,286047001.7,P
1686030216.0,286047001.7,P
1686030235.8,286047004.4,P
1686030255.7,286047003.7,Y
1686030275.5,286047002.8,P
1686030295.3,286047000.2,N
1686030315.2,286047000.0,N
1686030335.0,286047002.8,N
1686030335.9,286047002.8,N
1686030355.8,286047002.8,N
1686030375.6,286047001.6,N
1686030395.4,286047001.7,N
1686030415.3,286047004.1,Y
1686030435.1,286046999.8,P
1686030455.8,286046999.7,N
1686030475.7,286047000.5,N
1686030495.5,286047000.5,N
1686030515.4,286046999.7,N
1686030535.2,286047002.8,Y
1686030555.0,286047000.2,P
1686030555.9,286047000.2,N
1686030575.8,286047002.7,P
1686030595.6,286047002.4,N
1686030615.4,286047001.9,N
1686030635.3,286047001.3,N
1686030655.1,286047001.3,N
1686030675.9,286047001.7,N
1686030695.7,286047001.5,N
1686030715.5,286047004.2,Y
1686030735.4,286047002.4,P
1686030755.2,286047002.7,P
1686030775.0,286047001.9,P
1686030776.0,286047001.9,Y
1686030795.8,286047001.1,P
1686030815.6,286047001.0,N
1686030835.5,286047000.5,N
1686030855.3,286046998.5,N
1686030875.1,286047000.7,N
1686030895.9,286046999.9,N
1686030915.7,286046998.3,N
1686030935.6,286046998.4,N
1686030955.4,286046999.3,N
1686030975.2,286046998.4,N
1686030995.1,286046998.2,N
1686031026.0,286047001.2,E
1686031035.0,286046999.1,N
1686031035.9,286046999.1,P
1686031055.8,286046998.4,P
1686031075.6,286046999.0,Y
1686031095.4,286047000.6,P
1686031115.3,286047000.8,N
1686031135.1,286046998.2,N
1686031155.9,286047000.0,N
1686031175.7,286047000.8,N
1686031195.5,286047001.0,N
